Valladolid Airport, Spain

12:34 PM CET on November 23, 2017 (GMT +0100)
Villanubla

Weather History for LEVD - June, 2013

Change the Weather History Date:

Thursday, June 20, 2013

  Actual Average Record
Temperature  
Mean Temperature 58 °F -  
Max Temperature 71 °F - - ()
Min Temperature 44 °F - - ()
Degree Days  
Heating Degree Days 8    
Growing Degree Days 8 (Base 50)    
Moisture  
Dew Point 46 °F    
Average Humidity 61    
Maximum Humidity 100    
Minimum Humidity 31    
Precipitation  
Precipitation 0.00 in - - ()
Sea Level Pressure  
Sea Level Pressure 30.08 in    
Wind  
Wind Speed 5 mph ()    
Max Wind Speed 9 mph    
Max Gust Speed -    
Visibility 6.2 miles    
Events      
T = Trace of Precipitation, MM = Missing Value Source: Averaged Metar Reports

Daily Weather History Graph

Daily Weather History Graph

Search for Another Location

Airport or City:

Trip Planner

Search our weather history database for the weather conditions in past years. The results will help you decide how hot, cold, wet, or windy it might be!

Date:

Astronomy

Jun. 20, 2013 Rise Set
Actual Time 6:44 AM CEST 9:57 PM CEST
Civil Twilight 6:10 AM CEST 10:31 PM CEST
Nautical Twilight 5:26 AM CEST 11:15 PM CEST
Astronomical Twilight 4:33 AM CEST 12:08 AM CEST
Moon 6:41 PM CEST (6/20) 4:02 AM CEST (6/20)
Length of Visible Light 16h 21m
Length of Day
15h 12m
Waxing Gibbous, 87% of the Moon is Illuminated
Jun 20
Waxing Gibbous
Jun 23
Full
Jun 30
Last Quarter
Jul 8
New
Jul 16
First Quarter

Hourly Weather History & Observations

Time (CEST) Temp. Windchill Dew Point Humidity Pressure Visibility Wind Dir Wind Speed Gust Speed Precip Events Conditions
7:00 AM 46.4 °F 41.9 °F 44.6 °F 93% 30.06 in 6.2 mi NW 9.2 mph - N/A   Partly Cloudy
7:30 AM 44.6 °F 41.4 °F 44.6 °F 100% 30.06 in 6.2 mi NW 5.8 mph - N/A   Partly Cloudy
8:00 AM 44.6 °F 42.2 °F 44.6 °F 100% 30.06 in 6.2 mi WNW 4.6 mph - N/A   Partly Cloudy
8:30 AM 46.4 °F - 44.6 °F 93% 30.09 in 6.2 mi Variable 2.3 mph - N/A   Partly Cloudy
9:00 AM 50.0 °F - 46.4 °F 87% 30.09 in 6.2 mi WSW 4.6 mph - N/A   Partly Cloudy
9:30 AM 50.0 °F - 46.4 °F 87% 30.09 in - WSW 3.5 mph - N/A   Clear
10:00 AM 53.6 °F - 48.2 °F 82% 30.09 in - Variable 2.3 mph - N/A   Clear
10:30 AM 53.6 °F - 48.2 °F 82% 30.12 in - West 3.5 mph - N/A   Clear
11:00 AM 55.4 °F - 48.2 °F 77% 30.09 in 6.2 mi SW 3.5 mph - N/A   Partly Cloudy
11:30 AM 57.2 °F - 48.2 °F 72% 30.12 in 6.2 mi SW 4.6 mph - N/A   Scattered Clouds
12:00 PM 57.2 °F - 48.2 °F 72% 30.12 in 6.2 mi SW 5.8 mph - N/A   Scattered Clouds
12:30 PM 59.0 °F - 50.0 °F 72% 30.12 in 6.2 mi WSW 6.9 mph - N/A   Scattered Clouds
1:00 PM 60.8 °F - 50.0 °F 68% 30.09 in 6.2 mi WSW 5.8 mph - N/A   Scattered Clouds
1:30 PM 60.8 °F - 48.2 °F 63% 30.09 in 6.2 mi West 5.8 mph - N/A   Scattered Clouds
2:00 PM 62.6 °F - 48.2 °F 59% 30.09 in 6.2 mi West 6.9 mph - N/A   Scattered Clouds
2:30 PM 64.4 °F - 48.2 °F 56% 30.09 in 6.2 mi WSW 9.2 mph - N/A   Scattered Clouds
3:00 PM 66.2 °F - 48.2 °F 52% 30.09 in 6.2 mi West 8.1 mph - N/A   Partly Cloudy
3:30 PM 66.2 °F - 44.6 °F 46% 30.09 in 6.2 mi West 6.9 mph - N/A   Partly Cloudy
4:00 PM 68.0 °F - 44.6 °F 43% 30.09 in 6.2 mi West 5.8 mph - N/A   Partly Cloudy
4:30 PM 68.0 °F - 44.6 °F 43% 30.09 in 6.2 mi SW 5.8 mph - N/A   Partly Cloudy
5:00 PM 69.8 °F - 46.4 °F 43% 30.06 in 6.2 mi WSW 5.8 mph - N/A   Partly Cloudy
5:30 PM 69.8 °F - 42.8 °F 38% 30.06 in - WNW 8.1 mph - N/A   Clear
6:00 PM 71.6 °F - 42.8 °F 35% 30.06 in - WNW 5.8 mph - N/A   Clear
6:30 PM 71.6 °F - 41.0 °F 33% 30.06 in - Variable 2.3 mph - N/A   Clear
7:00 PM 71.6 °F - 39.2 °F 31% 30.06 in - West 3.5 mph - N/A   Clear
7:30 PM 71.6 °F - 41.0 °F 33% 30.06 in - SW 4.6 mph - N/A   Clear
8:00 PM 71.6 °F - 42.8 °F 35% 30.06 in - WSW 4.6 mph - N/A   Clear
8:30 PM 66.2 °F - 44.6 °F 46% 30.06 in - WSW 4.6 mph - N/A   Clear
9:00 PM 66.2 °F - 44.6 °F 46% 30.06 in 6.2 mi West 4.6 mph - N/A   Partly Cloudy
9:30 PM 66.2 °F - 48.2 °F 52% 30.09 in 6.2 mi WNW 8.1 mph - N/A   Partly Cloudy